This is the latest recevied weather packets stored in our database for station/object N7NIP. If no packets are shown the sender has not sent any weather packets the latest 10 day(s).
| Time | Temp. | Humidity | Pressure | Rain* | Wind** | Luminosity | Snow |
|---|---|---|---|---|---|---|---|
| 1777989953 | 11.67° C | 93% | 1029.2 hPa | 0 mm | - | 36 W/m² | - |
| 1777989650 | 11.67° C | 93% | 1029.2 hPa | 0 mm | - | 30 W/m² | - |
| 1777989346 | 11.67° C | 93% | 1029.3 hPa | 0 mm | - | 28 W/m² | - |
| 1777989043 | 11.67° C | 94% | 1029.1 hPa | 0 mm | - | 24 W/m² | - |
| 1777988738 | 11.11° C | 93% | 1028.9 hPa | 0 mm | - | 22 W/m² | - |
| 1777988436 | 11.11° C | 94% | 1029.1 hPa | 0 mm | - | 23 W/m² | - |
| 1777988133 | 11.11° C | 93% | 1029.2 hPa | 0 mm | - | 21 W/m² | - |
| 1777987829 | 11.11° C | 93% | 1028.8 hPa | 0 mm | - | 17 W/m² | - |
| 1777987526 | 11.11° C | 94% | 1028.9 hPa | 0 mm | - | 12 W/m² | - |
| 1777987223 | 11.11° C | 94% | 1028.8 hPa | 0 mm | - | 9 W/m² | - |
| 1777986919 | 11.11° C | 94% | 1028.8 hPa | 0 mm | - | 8 W/m² | - |
| 1777986618 | 11.11° C | 95% | 1028.9 hPa | 0 mm | - | 7 W/m² | - |
| 1777986315 | 11.11° C | 95% | 1028.7 hPa | 0 mm | - | 6 W/m² | - |
| 1777986014 | 11.11° C | 96% | 1028.6 hPa | 0 mm | - | 5 W/m² | - |
| 1777985710 | 11.11° C | 97% | 1028.5 hPa | 0 mm | - | 4 W/m² | - |
| 1777985407 | 11.11° C | 97% | 1028.5 hPa | 0 mm | - | 2 W/m² | - |
| 1777985103 | 11.11° C | 98% | 1028.5 hPa | 0 mm | - | 2 W/m² | - |
| 1777984799 | 10.56° C | 99% | 1028.6 hPa | 0 mm | - | 1 W/m² | - |
| 1777984496 | 10.56° C | 99% | 1028.2 hPa | 0 mm | - | 1 W/m² | - |
| 1777984192 | 10.56° C | 99% | 1028.3 hPa | 0 mm | - | 0 W/m² | - |
| 1777983890 | 10.56° C | 99% | 1028.4 hPa | 0 mm | - | 0 W/m² | - |
| 1777983586 | 10.56° C | 99% | 1028.3 hPa | 0 mm | - | 0 W/m² | - |
| 1777983283 | 10.56° C | 99% | 1028.2 hPa | 0 mm | - | 0 W/m² | - |
| 1777982979 | 10.56° C | 99% | 1028.1 hPa | 0 mm | - | 0 W/m² | - |
| 1777982676 | 10° C | 99% | 1028.3 hPa | 0 mm | - | 0 W/m² | - |
* Rain latest hour (hover to see other rain measurements)
** Current wind speed in m/s (hover to see current wind gust speed)